Wind_Speed
39 40 41 42 42 42 42 41 40 39 38 37 37 37 37 37 38 38 39 40 40 40 39 38 37 35 34 31 30 29 28 28 28 28 28 28 28 29 30 30 30 29
42 42 42 43 43 44 45 46 45 44 43 42 41 40 39 39 39 39 39 40 41 42 42 42 42 41 39 38 36 34 34 33 33 32 31 31 31 31 32 32 32 32
46 46 46 46 46 47 47 47 49 49 47 46 45 44 43 41 41 41 40 40 42 44 45 46 46 45 44 43 42 41 40 39 39 37 35 33 33 34 34 34 34 34
47 48 48 50 51 53 51 50 51 51 50 49 48 47 47 45 43 42 42 42 43 44 46 48 49 49 48 47 46 46 46 45 45 43 40 37 34 35 35 36 36 36
47 48 48 50 52 54 54 52 53 53 50 50 51 52 52 51 48 45 43 43 43 45 46 47 49 50 51 51 50 50 50 50 49 48 46 42 38 37 36 36 37 37
50 51 49 48 50 53 53 53 54 54 53 52 53 54 54 54 52 49 46 44 44 45 46 47 48 49 51 52 52 53 53 53 52 51 49 47 44 42 40 39 38 38
55 54 52 51 53 54 53 51 51 52 52 52 52 53 53 54 53 52 50 49 48 48 48 49 50 51 51 52 53 53 54 54 54 54 53 51 49 47 45 43 41 40
59 58 58 57 56 55 52 50 49 50 51 52 53 52 52 53 54 54 54 54 54 54 54 54 54 55 55 54 54 54 55 55 55 55 54 53 52 50 47 45 44 43
60 61 61 60 58 55 54 53 52 53 54 55 55 54 54 54 55 56 57 57 58 59 59 58 58 57 57 56 56 56 56 57 56 55 54 53 52 50 48 46 45 44
58 58 59 59 59 59 58 58 57 57 58 58 57 55 55 56 57 57 57 58 60 61 61 60 58 58 57 57 57 58 58 58 57 56 52 48 46 45 45 45 45 45
56 56 56 57 58 59 60 60 59 57 57 56 55 54 54 55 55 55 54 55 57 59 59 58 57 57 57 57 58 59 59 58 56 52 47 40 38 38 39 41 43 45
55 55 55 55 56 57 57 57 55 54 54 53 53 54 54 55 54 53 52 53 55 56 57 57 57 59 59 58 58 55 50 47 44 42 39 36 37 38 39 40 41 42
55 55 55 55 55 55 55 55 54 53 52 52 52 53 54 54 54 52 51 53 55 56 57 58 58 59 59 59 56 48 39 35 34 36 38 41 44 44 43 43 44 44
55 56 56 55 55 54 54 54 53 52 52 52 52 51 51 51 53 53 53 55 57 57 57 56 55 54 54 54 54 50 44 42 41 43 47 49 49 48 47 47 47 46
56 56 57 56 56 55 55 55 54 53 53 52 52 51 50 50 51 53 56 58 57 56 56 54 51 50 49 50 53 55 54 52 52 52 52 52 51 50 50 50 48 48
56 57 58 58 58 58 58 58 57 57 55 55 54 53 54 54 54 56 59 60 58 57 56 54 53 51 49 50 53 58 59 59 59 58 57 57 55 54 53 52 51 50
58 58 59 60 61 61 61 61 60 60 59 58 58 57 58 58 59 59 60 61 61 60 59 58 57 56 54 53 55 59 62 63 63 63 63 62 61 59 57 56 54 52
61 61 61 62 62 62 62 62 62 62 61 61 61 61 61 61 61 61 62 62 63 63 62 62 61 61 60 59 59 61 64 66 66 66 67 67 66 65 64 62 59 57
65 64 64 64 64 64 63 63 63 63 63 62 63 63 63 63 62 61 62 63 64 65 65 65 65 65 64 64 65 66 68 69 70 70 70 70 69 69 68 67 64 61
67 67 66 66 66 65 65 64 63 63 64 64 65 65 65 65 65 64 64 65 67 67 68 69 69 69 69 70 71 72 72 72 72 72 72 71 71 70 69 68 66 64
66 66 66 66 66 67 67 66 66 65 65 65 66 66 67 67 67 68 68 68 69 70 71 72 72 73 73 73 73 73 73 72 72 72 72 72 72 71 70 68 67 65
64 64 63 64 64 65 66 67 67 67 67 67 67 67 68 69 69 70 70 71 71 72 73 74 74 74 74 73 72 71 71 71 71 71 72 72 72 72 71 69 68 67
61 62 62 62 62 63 65 66 67 67 67 67 68 69 70 71 72 72 72 73 73 74 75 75 75 74 73 72 71 70 69 69 70 70 71 71 71 71 70 69 68 67
59 60 59 59 60 61 63 64 65 66 67 68 69 70 71 72 73 73 73 74 74 75 75 75 74 73 72 70 69 68 68 68 69 70 70 70 71 70 70 69 69 68
59 59 59 58 58 59 60 62 63 63 65 66 68 69 71 72 72 72 72 73 73 73 73 73 72 70 69 68 67 67 67 68 68 69 69 69 69 69 70 70 70 70
61 61 60 60 59 59 60 60 61 61 62 64 65 66 68 69 69 69 69 70 70 70 70 70 69 68 67 67 67 67 67 67 67 67 67 68 68 68 69 70 70 71
Wind_Direction
274 274 275 274 273 273 272 272 270 271 272 272 274 275 275 274 272 270 266 263 261 261 262 264 266 267 269 270 273 276 279 282 284 284 283 281 279 276 274 272 271 271
274 274 275 274 273 272 271 271 271 270 270 271 273 276 277 277 276 274 271 267 264 262 262 263 264 266 267 267 269 272 275 279 282 284 283 281 279 278 275 273 271 270
271 272 274 274 274 274 273 272 270 268 268 269 270 273 275 277 277 275 273 271 268 265 264 263 264 265 266 267 268 270 273 277 280 282 282 280 280 279 277 275 272 269
269 270 271 272 274 274 274 272 271 268 267 267 268 270 271 273 275 273 271 269 268 266 265 264 264 265 266 268 269 270 272 274 278 280 280 278 278 278 278 277 275 272
269 269 270 270 270 271 271 270 270 269 267 266 267 268 270 271 272 272 270 267 266 266 266 266 266 267 268 269 270 271 272 273 275 278 278 276 277 277 276 276 275 274
267 267 266 265 265 268 270 270 271 271 270 268 268 268 269 270 271 271 268 266 266 267 267 268 268 268 269 270 271 272 273 273 274 276 276 274 275 276 275 273 272 273
263 262 261 262 263 265 268 272 273 273 273 272 270 269 270 271 272 271 268 266 267 269 270 270 269 269 269 269 271 271 272 273 274 275 275 274 273 273 272 270 269 270
260 259 260 263 264 264 264 267 269 271 272 272 271 271 270 270 271 272 271 270 271 272 274 273 271 270 270 271 272 273 274 274 275 275 275 274 272 271 270 267 266 267
261 261 261 263 263 262 261 262 264 267 269 270 270 270 270 269 269 270 271 272 273 274 274 273 272 272 272 273 274 274 274 274 274 275 275 274 273 270 268 265 265 266
264 263 262 262 261 261 261 262 264 266 268 269 270 271 270 270 270 270 271 272 273 272 272 272 272 272 272 273 274 274 274 274 273 272 273 274 274 272 269 266 265 265
263 263 262 261 261 260 262 264 265 267 268 269 270 271 271 270 270 271 272 273 272 272 272 272 272 272 271 271 272 274 274 273 271 268 267 271 276 276 274 271 268 267
261 261 260 260 260 260 261 263 265 266 267 268 269 270 271 272 272 272 272 272 271 272 273 273 273 273 272 272 272 273 274 272 265 258 259 269 276 278 278 274 271 270
259 260 260 260 260 261 262 263 264 265 267 268 269 269 270 272 272 272 272 270 269 270 272 274 274 275 276 277 276 275 274 270 260 254 262 274 278 278 278 275 272 271
259 259 260 260 260 261 261 262 263 264 266 267 267 268 270 271 273 273 271 268 269 271 273 274 274 274 276 278 278 276 275 273 270 270 274 280 281 280 280 278 275 275
259 259 260 260 259 259 260 260 261 262 263 264 265 265 267 268 269 270 269 269 270 271 271 271 270 271 273 273 274 276 278 278 280 281 282 283 284 283 282 281 279 279
259 259 259 259 259 258 258 259 259 260 261 261 261 262 264 264 264 265 266 268 269 269 268 267 266 267 268 268 269 274 277 280 282 284 285 286 285 284 283 282 281 281
258 258 258 259 259 258 258 258 258 259 259 259 259 259 261 263 263 262 263 265 266 266 265 265 265 265 265 265 266 269 273 277 280 282 284 285 285 285 284 283 281 280
257 257 257 257 258 258 259 259 259 259 259 259 258 258 260 262 263 262 262 262 262 263 263 264 264 264 264 264 265 266 269 273 276 279 281 282 282 282 283 282 282 280
258 258 257 257 257 258 258 258 259 260 260 259 259 259 259 260 262 262 261 260 260 260 261 262 263 263 264 265 267 268 269 271 273 276 278 278 278 279 279 280 280 280
260 259 258 257 257 257 257 257 257 258 258 259 259 259 259 260 261 261 260 260 259 260 260 261 262 262 263 265 268 270 271 271 272 274 275 276 276 276 277 278 278 279
262 261 260 259 258 258 257 257 256 256 256 257 258 259 260 260 260 261 261 260 260 261 262 263 263 264 265 266 268 269 270 271 272 274 274 275 276 276 277 277 278 278
264 263 262 261 261 260 259 259 258 257 257 258 259 260 260 261 261 261 262 262 263 263 264 265 266 267 267 268 269 270 271 271 272 272 273 273 274 275 276 276 277 277
261 262 262 262 261 261 261 260 260 260 259 259 260 260 260 261 261 261 262 262 263 264 264 265 266 267 268 268 269 270 270 270 271 271 271 271 272 272 273 274 275 275
261 261 260 260 259 259 259 259 259 258 259 259 259 259 260 260 261 261 262 262 263 264 264 265 266 267 267 268 268 268 268 269 269 269 269 269 270 271 272 272 273 274
263 263 262 260 259 258 257 257 256 256 256 257 257 258 259 260 261 261 262 263 263 264 265 265 266 267 267 267 267 267 267 267 267 268 268 268 268 269 270 271 272 274
263 262 262 262 261 260 259 258 257 257 256 257 257 258 259 260 261 261 262 263 263 264 265 266 266 267 267 267 267 267 267 267 267 267 267 267 268 268 269 270 271 273
Height
10566 10566 10565 10566 10566 10567 10568 10568 10570 10570 10570 10570 10571 10571 10572 10573 10574 10575 10576 10577 10577 10578 10578 10579 10579 10579 10579 10580 10580 10581 10581 10582 10582 10582 10583 10583 10584 10585 10586 10587 10587 10587
10561 10561 10560 10561 10561 10561 10562 10562 10563 10564 10564 10565 10565 10566 10567 10568 10569 10570 10571 10571 10572 10572 10572 10573 10573 10574 10574 10575 10575 10576 10577 10577 10578 10578 10578 10578 10579 10580 10580 10581 10582 10583
10556 10556 10556 10556 10555 10555 10556 10557 10556 10557 10559 10559 10560 10561 10562 10563 10564 10564 10565 10565 10565 10565 10566 10566 10567 10568 10569 10569 10570 10571 10571 10572 10573 10573 10574 10574 10574 10574 10575 10576 10576 10577
10551 10551 10552 10552 10550 10548 10549 10550 10549 10551 10554 10554 10555 10556 10556 10558 10558 10558 10559 10558 10558 10558 10559 10559 10560 10561 10563 10564 10565 10566 10566 10567 10567 10568 10569 10569 10569 10569 10570 10570 10571 10572
10545 10546 10546 10547 10545 10542 10542 10543 10542 10544 10548 10549 10549 10550 10551 10552 10553 10552 10552 10552 10552 10552 10552 10553 10554 10555 10556 10557 10558 10559 10560 10561 10562 10563 10563 10564 10564 10564 10565 10565 10566 10566
10540 10540 10540 10540 10539 10537 10536 10537 10536 10537 10540 10543 10543 10544 10544 10545 10546 10546 10546 10545 10545 10546 10546 10548 10549 10550 10550 10551 10552 10553 10554 10555 10556 10557 10557 10558 10558 10559 10559 10560 10560 10561
10534 10534 10534 10533 10532 10533 10532 10532 10531 10531 10532 10534 10536 10538 10539 10539 10539 10540 10540 10539 10539 10540 10541 10542 10543 10543 10544 10545 10546 10547 10547 10548 10549 10550 10550 10551 10552 10552 10553 10554 10554 10555
10527 10528 10528 10527 10527 10528 10528 10528 10527 10526 10526 10527 10528 10531 10533 10532 10532 10532 10532 10532 10533 10534 10535 10536 10536 10537 10538 10539 10540 10541 10541 10541 10542 10543 10543 10544 10545 10545 10546 10547 10548 10549
10520 10521 10522 10522 10521 10521 10522 10522 10522 10522 10522 10521 10522 10525 10526 10525 10525 10525 10525 10525 10525 10526 10527 10528 10529 10531 10532 10533 10534 10534 10534 10534 10535 10536 10537 10537 10538 10538 10539 10540 10541 10542
10513 10514 10514 10515 10515 10514 10514 10515 10517 10517 10516 10515 10517 10518 10518 10517 10517 10517 10518 10518 10517 10517 10519 10521 10523 10525 10526 10527 10527 10526 10526 10527 10527 10529 10530 10531 10532 10532 10533 10534 10535 10536
10507 10507 10507 10507 10508 10507 10507 10508 10509 10509 10509 10509 10510 10510 10509 10508 10509 10510 10511 10510 10509 10508 10510 10513 10516 10517 10519 10520 10519 10518 10518 10518 10519 10522 10524 10526 10526 10527 10528 10528 10529 10530
10500 10500 10500 10501 10501 10501 10501 10501 10502 10502 10502 10503 10504 10502 10500 10500 10501 10504 10505 10503 10501 10501 10502 10505 10506 10507 10509 10510 10511 10512 10512 10511 10512 10515 10518 10519 10520 10521 10522 10522 10523 10523
10495 10493 10493 10494 10494 10494 10494 10494 10494 10495 10496 10497 10497 10495 10495 10494 10495 10497 10498 10495 10494 10494 10496 10497 10498 10498 10499 10499 10501 10505 10507 10506 10508 10511 10512 10513 10514 10515 10515 10515 10516 10516
10488 10487 10486 10487 10487 10487 10487 10487 10488 10489 10490 10490 10490 10490 10490 10489 10489 10490 10489 10487 10487 10489 10489 10490 10491 10491 10491 10490 10491 10495 10499 10501 10503 10505 10506 10507 10507 10508 10508 10507 10508 10509
10480 10480 10479 10480 10480 10480 10480 10480 10481 10482 10483 10483 10483 10484 10484 10484 10483 10482 10479 10479 10482 10483 10483 10484 10484 10484 10485 10485 10483 10484 10488 10492 10494 10496 10497 10498 10499 10500 10500 10499 10500 10501
10473 10473 10472 10472 10472 10473 10473 10473 10474 10475 10476 10476 10477 10478 10477 10477 10477 10476 10473 10473 10476 10477 10477 10477 10478 10478 10479 10479 10478 10477 10479 10482 10484 10486 10488 10489 10490 10491 10492 10492 10492 10493
10465 10465 10465 10464 10464 10465 10466 10466 10467 10468 10469 10469 10470 10471 10471 10470 10469 10470 10469 10469 10469 10470 10470 10471 10471 10473 10474 10474 10473 10473 10472 10473 10475 10477 10479 10480 10481 10482 10483 10483 10484 10486
10457 10457 10457 10457 10457 10457 10458 10459 10459 10460 10461 10462 10463 10464 10464 10463 10462 10462 10463 10463 10463 10463 10463 10464 10465 10466 10468 10469 10470 10469 10468 10468 10469 10470 10471 10472 10473 10474 10475 10475 10476 10477
10447 10448 10449 10449 10449 10450 10451 10451 10452 10452 10453 10454 10455 10456 10456 10455 10454 10454 10454 10455 10455 10455 10456 10457 10458 10459 10461 10462 10463 10464 10464 10464 10464 10464 10465 10465 10466 10466 10467 10467 10467 10468
10436 10438 10439 10439 10440 10441 10442 10443 10444 10444 10445 10446 10446 10447 10448 10448 10447 10446 10446 10446 10447 10447 10448 10449 10450 10452 10453 10455 10455 10456 10457 10457 10458 10457 10457 10457 10458 10458 10458 10458 10459 10459
10424 10426 10428 10429 10429 10430 10431 10433 10434 10435 10436 10436 10437 10438 10438 10439 10438 10438 10437 10438 10438 10439 10440 10441 10442 10443 10444 10446 10447 10448 10449 10449 10449 10449 10449 10448 10447 10448 10448 10448 10449 10450
10413 10415 10416 10417 10418 10419 10420 10421 10423 10424 10426 10427 10428 10428 10428 10428 10428 10428 10429 10430 10430 10430 10430 10431 10432 10433 10434 10436 10438 10439 10440 10441 10441 10440 10440 10439 10438 10438 10438 10439 10439 10440
10405 10406 10407 10408 10409 10409 10409 10409 10411 10413 10415 10417 10418 10418 10418 10418 10418 10419 10420 10421 10421 10421 10421 10422 10423 10424 10426 10427 10429 10430 10431 10432 10432 10431 10431 10430 10430 10429 10430 10430 10430 10431
10396 10397 10399 10400 10400 10400 10400 10401 10402 10404 10406 10407 10407 10407 10407 10407 10408 10409 10410 10412 10412 10412 10413 10414 10415 10416 10417 10419 10421 10422 10423 10423 10423 10422 10421 10421 10421 10421 10421 10421 10422 10422
10387 10388 10389 10390 10390 10391 10391 10392 10393 10395 10396 10397 10397 10397 10397 10397 10398 10400 10401 10401 10402 10402 10403 10404 10406 10407 10408 10410 10411 10412 10413 10413 10413 10412 10412 10412 10412 10412 10412 10412 10412 10413
10377 10378 10379 10380 10380 10381 10382 10383 10385 10386 10387 10388 10388 10388 10388 10388 10389 10390 10391 10391 10391 10392 10393 10394 10395 10397 10398 10400 10401 10402 10403 10403 10403 10403 10403 10403 10403 10403 10404 10404 10404 10403